Regional Weather Roundup
Issued by NWS

Home | Current Version | Previous Version | Graphics & Text | Print | Product List | Glossary On
Versions: 1 2 3 4 5 6 7 8 9 10 11 12 13 14 15 16 17 18 19 20 21 22 23 24 25 26 27 28 29 30 31 32 33 34 35 36 37 38 39 40 41 42 43 44 45 46 47 48 49 50
000
ASUS45 KTFX 281510
RWRMT
MONTANA REGIONAL WEATHER ROUNDUP
NATIONAL WEATHER SERVICE GREAT FALLS MT
900 AM MDT SUN MAY 28 2017

NOTE: "FAIR" INDICATES FEW OR NO CLOUDS BELOW 12000 FEET WITH NO
SIGNIFICANT WEATHER AND/OR OBSTRUCTIONS TO VISIBILITY.

MTZ001>007-043-281600-
WEST OF THE DIVIDE

CITY           SKY/WX    TMP DP  RH WIND       PRES   REMARKS
KALISPELL      SUNNY     61  45  55 NE14      30.23R
MISSOULA       SUNNY     55  42  61 S5        30.28S
BUTTE          SUNNY     51  36  56 CALM      30.33S
MULLAN PASS    SUNNY     58  34  40 CALM      30.33R
ANACONDA         N/A     57  37  47 CALM      30.30S
DEER LODGE       N/A     52  39  62 CALM      30.33S
EUREKA           N/A     61  45  55 CALM      30.25S
HAMILTON         N/A     55  37  50 SE9       30.27S
RONAN            N/A     62  45  53 CALM      30.26R
$$

MTZ008-052>055-281600-
SOUTHWEST MONTANA

CITY           SKY/WX    TMP DP  RH WIND       PRES   REMARKS
BOZEMAN        SUNNY     57  41  55 CALM      30.29R
DILLON         SUNNY     53  39  59 SW6       30.31S
ENNIS          PTSUNNY   54  37  54 CALM      30.36S
THREE FORKS      N/A     55  43  64 CALM      30.24S
$$

MTZ009-010-012-014-046-048-049-054-281600-
EAST SLOPES AND CENTRAL MONTANA

CITY           SKY/WX    TMP DP  RH WIND       PRES   REMARKS
CUT BANK       MOSUNNY   62  46  55 NW9       30.24S
GREAT FALLS    PTSUNNY   60  43  53 W7        30.25R
MALMSTROM AFB  CLOUDY    59  44  59 W5        30.25R
HELENA         SUNNY     58  41  53 CALM      30.26S
CHOTEAU          N/A     63  46  55 CALM      30.27S
$$

MTZ011-013-016-021-045-047-050-051-281600-
NORTH CENTRAL MONTANA

CITY           SKY/WX    TMP DP  RH WIND       PRES   REMARKS
HAVRE          SUNNY     67  45  45 NW12      30.17R
LEWISTOWN      SUNNY     59  48  67 W7        30.23R
N BAR RANCH      N/A     63  43  48 NW13      30.23S
CHINOOK          N/A     63  45  51 NW8       30.15R
$$

MTZ017>020-022>027-061-062-281600-
NORTHEAST MONTANA

CITY           SKY/WX    TMP DP  RH WIND       PRES   REMARKS
GLASGOW        SUNNY     64  44  48 NW13      30.06R
JORDAN           N/A     68  43  40 W12       30.09S
SIDNEY         SUNNY     67  38  34 NW13      30.00S
WOLF POINT     MOSUNNY   67  44  43 W15G22    30.02R
MALTA          SUNNY     63  52  67 W10G18    30.10R
PLENTYWOOD       N/A     61  37  41 NW17G23   29.98S
POPLAR           N/A     68  41  37 W20       30.00S
$$

MTZ028>42-056>058-281600-
SOUTHCENTRAL AND SOUTHEAST MONTANA

CITY           SKY/WX    TMP DP  RH WIND       PRES   REMARKS
BAKER          SUNNY     64  38  38 W12       30.07S
BILLINGS       PTSUNNY   58  45  62 S8        30.21S
LIVINGSTON     CLOUDY    53  42  66 NW13      30.27R
MILES CITY     PTSUNNY   65  43  44 W12       30.09S
BIG TIMBER     MOSUNNY   61  39  44 SW10      30.29R
EKALAKA          N/A     60  41  49 W8        30.07R
FORSYTH          N/A     61  45  55 SW12      30.12S
LAUREL           N/A     63  42  46 W3        30.19F
ROUNDUP          N/A     67  38  34 W9        30.08R
$$

REGIONAL REPORTS...DAKOTAS

CITY           SKY/WX    TMP DP  RH WIND       PRES   REMARKS
WILLISTON      MOSUNNY   67  38  34 W12       29.97F
MINOT          SUNNY     64  45  49 W18       29.89S
DICKINSON      PTSUNNY   62  35  36 NW17      29.99S
BEACH            N/A     63  36  36 W13G20    30.06R
CROSBY           N/A     63  39  42 NW17G24   29.95S
TIOGA            N/A     63  41  45 NW17      29.95F
WATFORD CITY     N/A     61  37  41 W12       29.97F
BISMARCK       SUNNY     65  44  46 NW14      29.94R
GRAND FORKS    CLOUDY    57  52  83 NW16      29.77R
FARGO          CLOUDY    61  50  67 NW12      29.78R
BUFFALO SD       N/A     66  33  29 NW14      30.01S
RAPID CITY     CLOUDY    65  37  35 NW21      30.10R
$$

REGIONAL REPORTS...WYOMING/IDAHO/WASHINGTON

CITY           SKY/WX    TMP DP  RH WIND       PRES   REMARKS
GILLETTE       SUNNY     62  44  51 NW15      30.18S
SHERIDAN       MOSUNNY   66  43  43 N15       30.19R
BUFFALO WY     CLOUDY    64  39  39 N17G25    30.22R
CODY           SUNNY     61  38  42 SW12      30.27F
YELLOWSTONE LA   N/A     39  34  82 CALM      30.43S
IDAHO FALLS    SUNNY     53  45  74 N5        30.31S
SALMON         SUNNY     50  39  66 CALM      30.31S
BOISE          SUNNY     62  42  47 CALM      30.22R
SPOKANE        SUNNY     63  48  58 NE3       30.19R
$$

REGIONAL REPORTS...ALBERTA

CITY           SKY/WX    TMP DP  RH WIND       PRES   REMARKS
EDMONTON       SUNNY     55  39  54 NE8       30.30R
CALGARY        MOSUNNY   59  36  41 CALM      30.28S
LETHBRIDGE     PTSUNNY   57  43  58 N6        30.25R
MEDICINE HAT   MOSUNNY   59  43  55 VRB3      30.21R
WATERTON GATE    N/A     61  41  48 NE2         N/A
MILK RIVER       N/A     55  48  76 N8          N/A
$$

REGIONAL REPORTS...SASKATCHEWAN

CITY           SKY/WX    TMP DP  RH WIND       PRES   REMARKS
SWIFT CURRENT  SUNNY     59  41  51 N16G22    30.11R
REGINA         MOSUNNY   59  43  55 N26G35    30.00R
SASKATOON      MOSUNNY   59  43  55 N18G26    30.09R
CYPRESS HILLS    N/A     52  37  58 N8          N/A
VAL MARIE        N/A     64  37  36 N22         N/A
ROCKGLEN         N/A     59  39  47 N18G30      N/A
$$



USA.gov is the U.S. government's official web portal to all federal, state and local government web resources and services.